Year,Month,Day,Hour,Minute,Value (Times are PST for temperature in C)
2017,09,23,00,00,14.00
2017,09,23,00,01,14.00
2017,09,23,00,02,13.90
2017,09,23,00,03,13.90
2017,09,23,00,04,13.90
2017,09,23,00,05,13.90
2017,09,23,00,06,13.90
2017,09,23,00,07,13.90
2017,09,23,00,08,13.90
2017,09,23,00,09,13.90
2017,09,23,00,10,13.90
2017,09,23,00,11,13.90
2017,09,23,00,12,13.90
2017,09,23,00,13,13.90
2017,09,23,00,14,13.80
2017,09,23,00,15,13.80
2017,09,23,00,16,13.80
2017,09,23,00,17,13.80
2017,09,23,00,18,13.80
2017,09,23,00,19,13.80
2017,09,23,00,20,13.80
2017,09,23,00,21,13.80
2017,09,23,00,22,13.80
2017,09,23,00,23,13.70
2017,09,23,00,24,13.70
2017,09,23,00,25,13.70
2017,09,23,00,26,13.70
2017,09,23,00,27,13.70
2017,09,23,00,28,13.70
2017,09,23,00,29,13.70
2017,09,23,00,30,13.70
2017,09,23,00,31,13.70
2017,09,23,00,32,13.70
2017,09,23,00,33,13.70
2017,09,23,00,34,13.70
2017,09,23,00,35,13.70
2017,09,23,00,36,13.70
2017,09,23,00,37,13.60
2017,09,23,00,38,13.60
2017,09,23,00,39,13.60
2017,09,23,00,40,13.60
2017,09,23,00,41,13.60
2017,09,23,00,42,13.60
2017,09,23,00,43,13.60
2017,09,23,00,44,13.60
2017,09,23,00,45,13.60
2017,09,23,00,46,13.60
2017,09,23,00,47,13.60
2017,09,23,00,48,13.60
2017,09,23,00,49,13.60
2017,09,23,00,50,13.60
2017,09,23,00,51,13.60
2017,09,23,00,52,13.60
2017,09,23,00,53,13.60
2017,09,23,00,54,13.60
2017,09,23,00,55,13.60
2017,09,23,00,56,13.50
2017,09,23,00,57,13.50
2017,09,23,00,58,13.50
2017,09,23,00,59,13.50
2017,09,23,01,00,13.50
2017,09,23,01,01,13.50
2017,09,23,01,02,13.50
2017,09,23,01,03,13.50
2017,09,23,01,04,13.50
2017,09,23,01,05,13.50
2017,09,23,01,06,13.50
2017,09,23,01,07,13.50
2017,09,23,01,08,13.50
2017,09,23,01,09,13.40
2017,09,23,01,10,13.40
2017,09,23,01,11,13.40
2017,09,23,01,12,13.40
2017,09,23,01,13,13.40
2017,09,23,01,14,13.40
2017,09,23,01,15,13.30
2017,09,23,01,16,13.30
2017,09,23,01,17,13.30
2017,09,23,01,18,13.30
2017,09,23,01,19,13.30
2017,09,23,01,20,13.30
2017,09,23,01,21,13.30
2017,09,23,01,22,13.30
2017,09,23,01,23,13.20
2017,09,23,01,24,13.20
2017,09,23,01,25,13.20
2017,09,23,01,26,13.20
2017,09,23,01,27,13.20
2017,09,23,01,28,13.20
2017,09,23,01,29,13.20
2017,09,23,01,30,13.20
2017,09,23,01,31,13.20
2017,09,23,01,32,13.20
2017,09,23,01,33,13.20
2017,09,23,01,34,13.20
2017,09,23,01,35,13.20
2017,09,23,01,36,13.20
2017,09,23,01,37,13.20
2017,09,23,01,38,13.20
2017,09,23,01,39,13.20
2017,09,23,01,40,13.20
2017,09,23,01,41,13.10
2017,09,23,01,42,13.10
2017,09,23,01,43,13.10
2017,09,23,01,44,13.10
2017,09,23,01,45,13.10
2017,09,23,01,46,13.10
2017,09,23,01,47,13.10
2017,09,23,01,48,13.10
2017,09,23,01,49,13.10
2017,09,23,01,50,13.10
2017,09,23,01,51,13.10
2017,09,23,01,52,13.00
2017,09,23,01,53,13.00
2017,09,23,01,54,13.00
2017,09,23,01,55,13.00
2017,09,23,01,56,13.00
2017,09,23,01,57,13.00
2017,09,23,01,58,13.00
2017,09,23,01,59,12.90
2017,09,23,02,00,12.90
2017,09,23,02,01,12.90
2017,09,23,02,02,12.90
2017,09,23,02,03,12.90
2017,09,23,02,04,12.90
2017,09,23,02,05,12.90
2017,09,23,02,06,12.90
2017,09,23,02,07,12.90
2017,09,23,02,08,12.90
2017,09,23,02,09,12.90
2017,09,23,02,10,12.80
2017,09,23,02,11,12.80
2017,09,23,02,12,12.80
2017,09,23,02,13,12.80
2017,09,23,02,14,12.80
2017,09,23,02,15,12.70
2017,09,23,02,16,12.70
2017,09,23,02,17,12.70
2017,09,23,02,18,12.70
2017,09,23,02,19,12.70
2017,09,23,02,20,12.70
2017,09,23,02,21,12.60
2017,09,23,02,22,12.60
2017,09,23,02,23,12.60
2017,09,23,02,24,12.60
2017,09,23,02,25,12.50
2017,09,23,02,26,12.50
2017,09,23,02,27,12.50
2017,09,23,02,28,12.40
2017,09,23,02,29,12.40
2017,09,23,02,30,12.40
2017,09,23,02,31,12.40
2017,09,23,02,32,12.40
2017,09,23,02,33,12.40
2017,09,23,02,34,12.30
2017,09,23,02,35,12.30
2017,09,23,02,36,12.30
2017,09,23,02,37,12.30
2017,09,23,02,38,12.30
2017,09,23,02,39,12.20
2017,09,23,02,40,12.20
2017,09,23,02,41,12.20
2017,09,23,02,42,12.20
2017,09,23,02,43,12.20
2017,09,23,02,44,12.20
2017,09,23,02,45,12.10
2017,09,23,02,46,12.10
2017,09,23,02,47,12.10
2017,09,23,02,48,12.10
2017,09,23,02,49,12.00
2017,09,23,02,50,12.00
2017,09,23,02,51,12.00
2017,09,23,02,52,12.00
2017,09,23,02,53,11.90
2017,09,23,02,54,11.90
2017,09,23,02,55,11.90
2017,09,23,02,56,11.90
2017,09,23,02,57,11.80
2017,09,23,02,58,11.80
2017,09,23,02,59,11.80
2017,09,23,03,00,11.80
2017,09,23,03,01,11.80
2017,09,23,03,02,11.80
2017,09,23,03,03,11.80
2017,09,23,03,04,11.80
2017,09,23,03,05,11.70
2017,09,23,03,06,11.70
2017,09,23,03,07,11.70
2017,09,23,03,08,11.70
2017,09,23,03,09,11.70
2017,09,23,03,10,11.70
2017,09,23,03,11,11.70
2017,09,23,03,12,11.70
2017,09,23,03,13,11.70
2017,09,23,03,14,11.70
2017,09,23,03,15,11.70
2017,09,23,03,16,11.70
2017,09,23,03,17,11.70
2017,09,23,03,18,11.70
2017,09,23,03,19,11.70
2017,09,23,03,20,11.60
2017,09,23,03,21,11.60
2017,09,23,03,22,11.60
2017,09,23,03,23,11.60
2017,09,23,03,24,11.60
2017,09,23,03,25,11.60
2017,09,23,03,26,11.60
2017,09,23,03,27,11.60
2017,09,23,03,28,11.50
2017,09,23,03,29,11.50
2017,09,23,03,30,11.50
2017,09,23,03,31,11.50
2017,09,23,03,32,11.50
2017,09,23,03,33,11.50
2017,09,23,03,34,11.50
2017,09,23,03,35,11.50
2017,09,23,03,36,11.50
2017,09,23,03,37,11.50
2017,09,23,03,38,11.50
2017,09,23,03,39,11.50
2017,09,23,03,40,11.50
2017,09,23,03,41,11.50
2017,09,23,03,42,11.60
2017,09,23,03,43,11.60
2017,09,23,03,44,11.60
2017,09,23,03,45,11.60
2017,09,23,03,46,11.60
2017,09,23,03,47,11.60
2017,09,23,03,48,11.60
2017,09,23,03,49,11.60
2017,09,23,03,50,11.60
2017,09,23,03,51,11.60
2017,09,23,03,52,11.60
2017,09,23,03,53,11.60
2017,09,23,03,54,11.60
2017,09,23,03,55,11.70
2017,09,23,03,56,11.60
2017,09,23,03,57,11.70
2017,09,23,03,58,11.60
2017,09,23,03,59,11.70
2017,09,23,04,00,11.70
2017,09,23,04,01,11.70
2017,09,23,04,02,11.70
2017,09,23,04,03,11.70
2017,09,23,04,04,11.70
2017,09,23,04,05,11.70
2017,09,23,04,06,11.70
2017,09,23,04,07,11.70
2017,09,23,04,08,11.70
2017,09,23,04,09,11.70
2017,09,23,04,10,11.70
2017,09,23,04,11,11.70
2017,09,23,04,12,11.70
2017,09,23,04,13,11.60
2017,09,23,04,14,11.70
2017,09,23,04,15,11.70
2017,09,23,04,16,11.70
2017,09,23,04,17,11.70
2017,09,23,04,18,11.70
2017,09,23,04,19,11.70
2017,09,23,04,20,11.70
2017,09,23,04,21,11.70
2017,09,23,04,22,11.70
2017,09,23,04,23,11.70
2017,09,23,04,24,11.70
2017,09,23,04,25,11.70
2017,09,23,04,26,11.70
2017,09,23,04,27,11.70
2017,09,23,04,28,11.70
2017,09,23,04,29,11.70
2017,09,23,04,30,11.70
2017,09,23,04,31,11.70
2017,09,23,04,32,11.70
2017,09,23,04,33,11.70
2017,09,23,04,34,11.70
2017,09,23,04,35,11.70
2017,09,23,04,36,11.70
2017,09,23,04,37,11.70
2017,09,23,04,38,11.70
2017,09,23,04,39,11.70
2017,09,23,04,40,11.70
2017,09,23,04,41,11.60
2017,09,23,04,42,11.60
2017,09,23,04,43,11.60
2017,09,23,04,44,11.60
2017,09,23,04,45,11.60
2017,09,23,04,46,11.60
2017,09,23,04,47,11.70
2017,09,23,04,48,11.70
2017,09,23,04,49,11.70
2017,09,23,04,50,11.70
2017,09,23,04,51,11.70
2017,09,23,04,52,11.70
2017,09,23,04,53,11.70
2017,09,23,04,54,11.70
2017,09,23,04,55,11.70
2017,09,23,04,56,11.70
2017,09,23,04,57,11.70
2017,09,23,04,58,11.70
2017,09,23,04,59,11.70
2017,09,23,05,00,11.70
2017,09,23,05,01,11.70
2017,09,23,05,02,11.60
2017,09,23,05,03,11.60
2017,09,23,05,04,11.60
2017,09,23,05,05,11.60
2017,09,23,05,06,11.60
2017,09,23,05,07,11.60
2017,09,23,05,08,11.60
2017,09,23,05,09,11.60
2017,09,23,05,10,11.60
2017,09,23,05,11,11.60
2017,09,23,05,12,11.60
2017,09,23,05,13,11.60
2017,09,23,05,14,11.60
2017,09,23,05,15,11.60
2017,09,23,05,16,11.50
2017,09,23,05,17,11.50
2017,09,23,05,18,11.40
2017,09,23,05,19,11.40
2017,09,23,05,20,11.40
2017,09,23,05,21,11.40
2017,09,23,05,22,11.30
2017,09,23,05,23,11.30
2017,09,23,05,24,11.30
2017,09,23,05,25,11.30
2017,09,23,05,26,11.30
2017,09,23,05,27,11.20
2017,09,23,05,28,11.20
2017,09,23,05,29,11.20
2017,09,23,05,30,11.20
2017,09,23,05,31,11.10
2017,09,23,05,32,11.10
2017,09,23,05,33,11.10
2017,09,23,05,34,11.10
2017,09,23,05,35,11.10
2017,09,23,05,36,11.00
2017,09,23,05,37,11.00
2017,09,23,05,38,11.00
2017,09,23,05,39,10.90
2017,09,23,05,40,10.90
2017,09,23,05,41,10.90
2017,09,23,05,42,10.90
2017,09,23,05,43,10.90
2017,09,23,05,44,10.90
2017,09,23,05,45,10.80
2017,09,23,05,46,10.80
2017,09,23,05,47,10.80
2017,09,23,05,48,10.80
2017,09,23,05,49,10.80
2017,09,23,05,50,10.80
2017,09,23,05,51,10.70
2017,09,23,05,52,10.70
2017,09,23,05,53,10.70
2017,09,23,05,54,10.70
2017,09,23,05,55,10.60
2017,09,23,05,56,10.60
2017,09,23,05,57,10.60
2017,09,23,05,58,10.60
2017,09,23,05,59,10.60
2017,09,23,06,00,10.60
2017,09,23,06,01,10.50
2017,09,23,06,02,10.50
2017,09,23,06,03,10.40
2017,09,23,06,04,10.40
2017,09,23,06,05,10.40
2017,09,23,06,06,10.40
2017,09,23,06,07,10.30
2017,09,23,06,08,10.30
2017,09,23,06,09,10.30
2017,09,23,06,10,10.30
2017,09,23,06,11,10.20
2017,09,23,06,12,10.20
2017,09,23,06,13,10.20
2017,09,23,06,14,10.20
2017,09,23,06,15,10.20
2017,09,23,06,16,10.20
2017,09,23,06,17,10.20
2017,09,23,06,18,10.20
2017,09,23,06,19,10.10
2017,09,23,06,20,10.10
2017,09,23,06,21,10.10
2017,09,23,06,22,10.10
2017,09,23,06,23,10.10
2017,09,23,06,24,10.10
2017,09,23,06,25,10.10
2017,09,23,06,26,10.10
2017,09,23,06,27,10.10
2017,09,23,06,28,10.00
2017,09,23,06,29,10.00
2017,09,23,06,30,10.00
2017,09,23,06,31,10.00
2017,09,23,06,32,9.90
2017,09,23,06,33,9.90
2017,09,23,06,34,9.90
2017,09,23,06,35,9.90
2017,09,23,06,36,9.90
2017,09,23,06,37,9.90
2017,09,23,06,38,9.90
2017,09,23,06,39,9.90
2017,09,23,06,40,9.90
2017,09,23,06,41,9.80
2017,09,23,06,42,9.80
2017,09,23,06,43,9.80
2017,09,23,06,44,9.80
2017,09,23,06,45,9.80
2017,09,23,06,46,9.80
2017,09,23,06,47,9.80
2017,09,23,06,48,9.80
2017,09,23,06,49,9.80
2017,09,23,06,50,9.80
2017,09,23,06,51,9.80
2017,09,23,06,52,9.80
2017,09,23,06,53,9.80
2017,09,23,06,54,9.70
2017,09,23,06,55,9.70
2017,09,23,06,56,9.70
2017,09,23,06,57,9.70
2017,09,23,06,58,9.70
2017,09,23,06,59,9.70
2017,09,23,07,00,9.70
2017,09,23,07,01,9.70
2017,09,23,07,02,9.70
2017,09,23,07,03,9.60
2017,09,23,07,04,9.60
2017,09,23,07,05,9.60
2017,09,23,07,06,9.60
2017,09,23,07,07,9.60
2017,09,23,07,08,9.60
2017,09,23,07,09,9.60
2017,09,23,07,10,9.60
2017,09,23,07,11,9.60
2017,09,23,07,12,9.50
2017,09,23,07,13,9.50
2017,09,23,07,14,9.50
2017,09,23,07,15,9.50
2017,09,23,07,16,9.50
2017,09,23,07,17,9.50
2017,09,23,07,18,9.50
2017,09,23,07,19,9.50
2017,09,23,07,20,9.50
2017,09,23,07,21,9.60
2017,09,23,07,22,9.60
2017,09,23,07,23,9.60
2017,09,23,07,24,9.70
2017,09,23,07,25,9.70
2017,09,23,07,26,9.70
2017,09,23,07,27,9.70
2017,09,23,07,28,9.80
2017,09,23,07,29,9.80
2017,09,23,07,30,9.80
2017,09,23,07,31,9.80
2017,09,23,07,32,9.90
2017,09,23,07,33,9.90
2017,09,23,07,34,9.90
2017,09,23,07,35,9.90
2017,09,23,07,36,10.00
2017,09,23,07,37,10.00
2017,09,23,07,38,10.10
2017,09,23,07,39,10.10
2017,09,23,07,40,10.10
2017,09,23,07,41,10.10
2017,09,23,07,42,10.10
2017,09,23,07,43,10.10
2017,09,23,07,44,10.20
2017,09,23,07,45,10.20
2017,09,23,07,46,10.20
2017,09,23,07,47,10.20
2017,09,23,07,48,10.20
2017,09,23,07,49,10.20
2017,09,23,07,50,10.20
2017,09,23,07,51,10.20
2017,09,23,07,52,10.20
2017,09,23,07,53,10.20
2017,09,23,07,54,10.20
2017,09,23,07,55,10.20
2017,09,23,07,56,10.20
2017,09,23,07,57,10.20
2017,09,23,07,58,10.20
2017,09,23,07,59,10.20
2017,09,23,08,00,10.20
2017,09,23,08,01,10.30
2017,09,23,08,02,10.30
2017,09,23,08,03,10.30
2017,09,23,08,04,10.30
2017,09,23,08,05,10.30
2017,09,23,08,06,10.30
2017,09,23,08,07,10.30
2017,09,23,08,08,10.40
2017,09,23,08,09,10.40
2017,09,23,08,10,10.40
2017,09,23,08,11,10.40
2017,09,23,08,12,10.50
2017,09,23,08,13,10.50
2017,09,23,08,14,10.50
2017,09,23,08,15,10.60
2017,09,23,08,16,10.60
2017,09,23,08,17,10.70
2017,09,23,08,18,10.70
2017,09,23,08,19,10.80
2017,09,23,08,20,10.80
2017,09,23,08,21,10.90
2017,09,23,08,22,10.90
2017,09,23,08,23,11.00
2017,09,23,08,24,11.00
2017,09,23,08,25,11.10
2017,09,23,08,26,11.20
2017,09,23,08,27,11.30
2017,09,23,08,28,11.40
2017,09,23,08,29,11.40
2017,09,23,08,30,11.50
2017,09,23,08,31,11.60
2017,09,23,08,32,11.70
2017,09,23,08,33,11.70
2017,09,23,08,34,11.80
2017,09,23,08,35,11.80
2017,09,23,08,36,11.90
2017,09,23,08,37,12.00
2017,09,23,08,38,12.00
2017,09,23,08,39,12.10
2017,09,23,08,40,12.10
2017,09,23,08,41,12.20
2017,09,23,08,42,12.30
2017,09,23,08,43,12.30
2017,09,23,08,44,12.40
2017,09,23,08,45,12.40
2017,09,23,08,46,12.50
2017,09,23,08,47,12.50
2017,09,23,08,48,12.60
2017,09,23,08,49,12.60
2017,09,23,08,50,12.70
2017,09,23,08,51,12.70
2017,09,23,08,52,12.80
2017,09,23,08,53,12.80
2017,09,23,08,54,12.90
2017,09,23,08,55,12.90
2017,09,23,08,56,13.00
2017,09,23,08,57,13.00
2017,09,23,08,58,13.10
2017,09,23,08,59,13.20
2017,09,23,09,00,13.20
2017,09,23,09,01,13.30
2017,09,23,09,02,13.30
2017,09,23,09,03,13.30
2017,09,23,09,04,13.30
2017,09,23,09,05,13.40
2017,09,23,09,06,13.40
2017,09,23,09,07,13.40
2017,09,23,09,08,13.40
2017,09,23,09,09,13.40
2017,09,23,09,10,13.50
2017,09,23,09,11,13.50
2017,09,23,09,12,13.50
2017,09,23,09,13,13.60
2017,09,23,09,14,13.60
2017,09,23,09,15,13.60
2017,09,23,09,16,13.70
2017,09,23,09,17,13.70
2017,09,23,09,18,13.70
2017,09,23,09,19,13.70
2017,09,23,09,20,13.80
2017,09,23,09,21,13.80
2017,09,23,09,22,13.80
2017,09,23,09,23,13.80
2017,09,23,09,24,13.80
2017,09,23,09,25,13.80
2017,09,23,09,26,13.80
2017,09,23,09,27,13.80
2017,09,23,09,28,13.80
2017,09,23,09,29,13.80
2017,09,23,09,30,13.80
2017,09,23,09,31,13.80
2017,09,23,09,32,13.80
2017,09,23,09,33,13.90
2017,09,23,09,34,13.90
2017,09,23,09,35,14.00
2017,09,23,09,36,14.00
2017,09,23,09,37,14.10
2017,09,23,09,38,14.10
2017,09,23,09,39,14.20
2017,09,23,09,40,14.30
2017,09,23,09,41,14.30
2017,09,23,09,42,14.40
2017,09,23,09,43,14.40
2017,09,23,09,44,14.50
2017,09,23,09,45,14.50
2017,09,23,09,46,14.60
2017,09,23,09,47,14.70
2017,09,23,09,48,14.70
2017,09,23,09,49,14.70
2017,09,23,09,50,14.80
2017,09,23,09,51,14.80
2017,09,23,09,52,14.90
2017,09,23,09,53,14.90
2017,09,23,09,54,14.90
2017,09,23,09,55,15.00
2017,09,23,09,56,15.00
2017,09,23,09,57,15.10
2017,09,23,09,58,15.10
2017,09,23,09,59,15.10
2017,09,23,10,00,15.20
2017,09,23,10,01,15.20
2017,09,23,10,02,15.20
2017,09,23,10,03,15.20
2017,09,23,10,04,15.20
2017,09,23,10,05,15.30
2017,09,23,10,06,15.30
2017,09,23,10,07,15.30
2017,09,23,10,08,15.30
2017,09,23,10,09,15.30
2017,09,23,10,10,15.40
2017,09,23,10,11,15.40
2017,09,23,10,12,15.50
2017,09,23,10,13,15.50
2017,09,23,10,14,15.60
2017,09,23,10,15,15.60
2017,09,23,10,16,15.70
2017,09,23,10,17,15.70
2017,09,23,10,18,15.70
2017,09,23,10,19,15.80
2017,09,23,10,20,15.80
2017,09,23,10,21,15.70
2017,09,23,10,22,15.70
2017,09,23,10,23,15.70
2017,09,23,10,24,15.70
2017,09,23,10,25,15.60
2017,09,23,10,26,15.60
2017,09,23,10,27,15.60
2017,09,23,10,28,15.50
2017,09,23,10,29,15.50
2017,09,23,10,30,15.50
2017,09,23,10,31,15.50
2017,09,23,10,32,15.60
2017,09,23,10,33,15.60
2017,09,23,10,34,15.60
2017,09,23,10,35,15.60
2017,09,23,10,36,15.60
2017,09,23,10,37,15.60
2017,09,23,10,38,15.60
2017,09,23,10,39,15.60
2017,09,23,10,40,15.60
2017,09,23,10,41,15.60
2017,09,23,10,42,15.60
2017,09,23,10,43,15.60
2017,09,23,10,44,15.60
2017,09,23,10,45,15.60
2017,09,23,10,46,15.60
2017,09,23,10,47,15.60
2017,09,23,10,48,15.60
2017,09,23,10,49,15.50
2017,09,23,10,50,15.50
2017,09,23,10,51,15.50
2017,09,23,10,52,15.50
2017,09,23,10,53,15.50
2017,09,23,10,54,15.50
2017,09,23,10,55,15.40
2017,09,23,10,56,15.40
2017,09,23,10,57,15.40
2017,09,23,10,58,15.50
2017,09,23,10,59,15.50
2017,09,23,11,00,15.50
2017,09,23,11,01,15.50
2017,09,23,11,02,15.50
2017,09,23,11,03,15.50
2017,09,23,11,04,15.50
2017,09,23,11,05,15.40
2017,09,23,11,06,15.40
2017,09,23,11,07,15.40
2017,09,23,11,08,15.50
2017,09,23,11,09,15.50
2017,09,23,11,10,15.50
2017,09,23,11,11,15.50
2017,09,23,11,12,15.60
2017,09,23,11,13,15.60
2017,09,23,11,14,15.60
2017,09,23,11,15,15.60
2017,09,23,11,16,15.60
2017,09,23,11,17,15.60
2017,09,23,11,18,15.60
2017,09,23,11,19,15.60
2017,09,23,11,20,15.60
2017,09,23,11,21,15.60
2017,09,23,11,22,15.70
2017,09,23,11,23,15.70
2017,09,23,11,24,15.70
2017,09,23,11,25,15.80
2017,09,23,11,26,15.80
2017,09,23,11,27,15.80
2017,09,23,11,28,15.90
2017,09,23,11,29,15.90
2017,09,23,11,30,16.00
2017,09,23,11,31,16.00
2017,09,23,11,32,16.10
2017,09,23,11,33,16.20
2017,09,23,11,34,16.30
2017,09,23,11,35,16.40
2017,09,23,11,36,16.40
2017,09,23,11,37,16.50
2017,09,23,11,38,16.50
2017,09,23,11,39,16.60
2017,09,23,11,40,16.60
2017,09,23,11,41,16.60
2017,09,23,11,42,16.70
2017,09,23,11,43,16.70
2017,09,23,11,44,16.70
2017,09,23,11,45,16.70
2017,09,23,11,46,16.70
2017,09,23,11,47,16.60
2017,09,23,11,48,16.60
2017,09,23,11,49,16.60
2017,09,23,11,50,16.60
2017,09,23,11,51,16.60
2017,09,23,11,52,16.60
2017,09,23,11,53,16.70
2017,09,23,11,54,16.70
2017,09,23,11,55,16.70
2017,09,23,11,56,16.70
2017,09,23,11,57,16.70
2017,09,23,11,58,16.60
2017,09,23,11,59,16.60
2017,09,23,12,00,16.60
2017,09,23,12,01,16.60
2017,09,23,12,02,16.50
2017,09,23,12,03,16.50
2017,09,23,12,04,16.50
2017,09,23,12,05,16.60
2017,09,23,12,06,16.60
2017,09,23,12,07,16.60
2017,09,23,12,08,16.60
2017,09,23,12,09,16.60
2017,09,23,12,10,16.60
2017,09,23,12,11,16.60
2017,09,23,12,12,16.60
2017,09,23,12,13,16.60
2017,09,23,12,14,16.60
2017,09,23,12,15,16.60
2017,09,23,12,16,16.60
2017,09,23,12,17,16.70
2017,09,23,12,18,16.70
2017,09,23,12,19,16.80
2017,09,23,12,20,16.80
2017,09,23,12,21,16.80
2017,09,23,12,22,16.90
2017,09,23,12,23,16.90
2017,09,23,12,24,16.90
2017,09,23,12,25,16.90
2017,09,23,12,26,16.90
2017,09,23,12,27,16.90
2017,09,23,12,28,16.90
2017,09,23,12,29,16.90
2017,09,23,12,30,16.80
2017,09,23,12,31,16.90
2017,09,23,12,32,16.90
2017,09,23,12,33,16.80
2017,09,23,12,34,16.80
2017,09,23,12,35,16.90
2017,09,23,12,36,16.90
2017,09,23,12,37,16.90
2017,09,23,12,38,16.90
2017,09,23,12,39,16.90
2017,09,23,12,40,16.90
2017,09,23,12,41,16.90
2017,09,23,12,42,16.90
2017,09,23,12,43,16.90
2017,09,23,12,44,16.90
2017,09,23,12,45,16.90
2017,09,23,12,46,16.90
2017,09,23,12,47,16.90
2017,09,23,12,48,16.80
2017,09,23,12,49,16.80
2017,09,23,12,50,16.90
2017,09,23,12,51,16.90
2017,09,23,12,52,16.90
2017,09,23,12,53,17.00
2017,09,23,12,54,17.10
2017,09,23,12,55,17.10
2017,09,23,12,56,17.10
2017,09,23,12,57,17.20
2017,09,23,12,58,17.20
2017,09,23,12,59,17.10
2017,09,23,13,00,17.10
2017,09,23,13,01,17.10
2017,09,23,13,02,17.10
2017,09,23,13,03,17.10
2017,09,23,13,04,17.10
2017,09,23,13,05,17.10
2017,09,23,13,06,17.10
2017,09,23,13,07,17.10
2017,09,23,13,08,17.10
2017,09,23,13,09,17.00
2017,09,23,13,10,17.00
2017,09,23,13,11,17.00
2017,09,23,13,12,17.00
2017,09,23,13,13,17.00
2017,09,23,13,14,17.10
2017,09,23,13,15,17.10
2017,09,23,13,16,17.10
2017,09,23,13,17,17.10
2017,09,23,13,18,17.20
2017,09,23,13,19,17.20
2017,09,23,13,20,17.20
2017,09,23,13,21,17.20
2017,09,23,13,22,17.10
2017,09,23,13,23,17.10
2017,09,23,13,24,17.10
2017,09,23,13,25,17.10
2017,09,23,13,26,17.10
2017,09,23,13,27,17.10
2017,09,23,13,28,17.10
2017,09,23,13,29,17.20
2017,09,23,13,30,17.20
2017,09,23,13,31,17.20
2017,09,23,13,32,17.20
2017,09,23,13,33,17.10
2017,09,23,13,34,17.10
2017,09,23,13,35,17.10
2017,09,23,13,36,17.10
2017,09,23,13,37,17.10
2017,09,23,13,38,17.10
2017,09,23,13,39,17.00
2017,09,23,13,40,17.00
2017,09,23,13,41,17.00
2017,09,23,13,42,16.90
2017,09,23,13,43,16.90
2017,09,23,13,44,16.90
2017,09,23,13,45,16.90
2017,09,23,13,46,16.80
2017,09,23,13,47,16.80
2017,09,23,13,48,16.80
2017,09,23,13,49,16.80
2017,09,23,13,50,16.80
2017,09,23,13,51,16.80
2017,09,23,13,52,16.80
2017,09,23,13,53,16.80
2017,09,23,13,54,16.80
2017,09,23,13,55,16.90
2017,09,23,13,56,16.90
2017,09,23,13,57,16.90
2017,09,23,13,58,16.90
2017,09,23,13,59,16.90
2017,09,23,14,00,16.90
2017,09,23,14,01,16.90
2017,09,23,14,02,16.90
2017,09,23,14,03,16.90
2017,09,23,14,04,16.90
2017,09,23,14,05,17.00
2017,09,23,14,06,17.00
2017,09,23,14,07,17.10
2017,09,23,14,08,17.10
2017,09,23,14,09,17.10
2017,09,23,14,10,17.10
2017,09,23,14,11,17.10
2017,09,23,14,12,17.20
2017,09,23,14,13,17.20
2017,09,23,14,14,17.20
2017,09,23,14,15,17.10
2017,09,23,14,16,17.10
2017,09,23,14,17,17.10
2017,09,23,14,18,17.10
2017,09,23,14,19,17.00
2017,09,23,14,20,17.00
2017,09,23,14,21,16.90
2017,09,23,14,22,16.90
2017,09,23,14,23,16.80
2017,09,23,14,24,16.80
2017,09,23,14,25,16.80
2017,09,23,14,26,16.80
2017,09,23,14,27,16.70
2017,09,23,14,28,16.70
2017,09,23,14,29,16.70
2017,09,23,14,30,16.80
2017,09,23,14,31,16.80
2017,09,23,14,32,16.90
2017,09,23,14,33,16.90
2017,09,23,14,34,16.90
2017,09,23,14,35,16.90
2017,09,23,14,36,17.00
2017,09,23,14,37,17.00
2017,09,23,14,38,17.00
2017,09,23,14,39,17.00
2017,09,23,14,40,17.00
2017,09,23,14,41,16.90
2017,09,23,14,42,16.90
2017,09,23,14,43,16.90
2017,09,23,14,44,16.90
2017,09,23,14,45,16.90
2017,09,23,14,46,16.90
2017,09,23,14,47,16.80
2017,09,23,14,48,16.90
2017,09,23,14,49,16.90
2017,09,23,14,50,16.90
2017,09,23,14,51,17.00
2017,09,23,14,52,17.10
2017,09,23,14,53,17.10
2017,09,23,14,54,17.20
2017,09,23,14,55,17.20
2017,09,23,14,56,17.20
2017,09,23,14,57,17.30
2017,09,23,14,58,17.30
2017,09,23,14,59,17.30
2017,09,23,15,00,17.30
2017,09,23,15,01,17.40
2017,09,23,15,02,17.40
2017,09,23,15,03,17.40
2017,09,23,15,04,17.40
2017,09,23,15,05,17.40
2017,09,23,15,06,17.40
2017,09,23,15,07,17.40
2017,09,23,15,08,17.30
2017,09,23,15,09,17.30
2017,09,23,15,10,17.30
2017,09,23,15,11,17.30
2017,09,23,15,12,17.30
2017,09,23,15,13,17.30
2017,09,23,15,14,17.30
2017,09,23,15,15,17.30
2017,09,23,15,16,17.30
2017,09,23,15,17,17.30
2017,09,23,15,18,17.30
2017,09,23,15,19,17.30
2017,09,23,15,20,17.30
2017,09,23,15,21,17.30
2017,09,23,15,22,17.30
2017,09,23,15,23,17.30
2017,09,23,15,24,17.30
2017,09,23,15,25,17.40
2017,09,23,15,26,17.40
2017,09,23,15,27,17.40
2017,09,23,15,28,17.40
2017,09,23,15,29,17.40
2017,09,23,15,30,17.40
2017,09,23,15,31,17.40
2017,09,23,15,32,17.40
2017,09,23,15,33,17.40
2017,09,23,15,34,17.40
2017,09,23,15,35,17.50
2017,09,23,15,36,17.50
2017,09,23,15,37,17.50
2017,09,23,15,38,17.60
2017,09,23,15,39,17.60
2017,09,23,15,40,17.60
2017,09,23,15,41,17.50
2017,09,23,15,42,17.50
2017,09,23,15,43,17.50
2017,09,23,15,44,17.40
2017,09,23,15,45,17.40
2017,09,23,15,46,17.40
2017,09,23,15,47,17.40
2017,09,23,15,48,17.30
2017,09,23,15,49,17.30
2017,09,23,15,50,17.30
2017,09,23,15,51,17.20
2017,09,23,15,52,17.20
2017,09,23,15,53,17.20
2017,09,23,15,54,17.20
2017,09,23,15,55,17.30
2017,09,23,15,56,17.30
2017,09,23,15,57,17.30
2017,09,23,15,58,17.30
2017,09,23,15,59,17.30
2017,09,23,16,00,17.30
2017,09,23,16,01,17.30
2017,09,23,16,02,17.30
2017,09,23,16,03,17.30
2017,09,23,16,04,17.40
2017,09,23,16,05,17.40
2017,09,23,16,06,17.40
2017,09,23,16,07,17.40
2017,09,23,16,08,17.40
2017,09,23,16,09,17.40
2017,09,23,16,10,17.40
2017,09,23,16,11,17.40
2017,09,23,16,12,17.50
2017,09,23,16,13,17.50
2017,09,23,16,14,17.50
2017,09,23,16,15,17.50
2017,09,23,16,16,17.50
2017,09,23,16,17,17.50
2017,09,23,16,18,17.50
2017,09,23,16,19,17.50
2017,09,23,16,20,17.50
2017,09,23,16,21,17.50
2017,09,23,16,22,17.50
2017,09,23,16,23,17.50
2017,09,23,16,24,17.50
2017,09,23,16,25,17.50
2017,09,23,16,26,17.50
2017,09,23,16,27,17.40
2017,09,23,16,28,17.40
2017,09,23,16,29,17.40
2017,09,23,16,30,17.40
2017,09,23,16,31,17.40
2017,09,23,16,32,17.30
2017,09,23,16,33,17.30
2017,09,23,16,34,17.30
2017,09,23,16,35,17.30
2017,09,23,16,36,17.30
2017,09,23,16,37,17.30
2017,09,23,16,38,17.30
2017,09,23,16,39,17.30
2017,09,23,16,40,17.30
2017,09,23,16,41,17.20
2017,09,23,16,42,17.20
2017,09,23,16,43,17.20
2017,09,23,16,44,17.10
2017,09,23,16,45,17.10
2017,09,23,16,46,17.10
2017,09,23,16,47,17.00
2017,09,23,16,48,17.00
2017,09,23,16,49,17.00
2017,09,23,16,50,17.00
2017,09,23,16,51,16.90
2017,09,23,16,52,16.90
2017,09,23,16,53,16.90
2017,09,23,16,54,16.90
2017,09,23,16,55,16.90
2017,09,23,16,56,16.90
2017,09,23,16,57,17.00
2017,09,23,16,58,17.00
2017,09,23,16,59,17.00
2017,09,23,17,00,17.00
2017,09,23,17,01,17.00
2017,09,23,17,02,17.00
2017,09,23,17,03,17.10
2017,09,23,17,04,17.10
2017,09,23,17,05,17.10
2017,09,23,17,06,17.10
2017,09,23,17,07,17.10
2017,09,23,17,08,17.10
2017,09,23,17,09,17.10
2017,09,23,17,10,17.10
2017,09,23,17,11,17.10
2017,09,23,17,12,17.10
2017,09,23,17,13,17.10
2017,09,23,17,14,17.10
2017,09,23,17,15,17.10
2017,09,23,17,16,17.10
2017,09,23,17,17,17.20
2017,09,23,17,18,17.20
2017,09,23,17,19,17.20
2017,09,23,17,20,17.20
2017,09,23,17,21,17.10
2017,09,23,17,22,17.10